Stations météo

réclame
Mon MeteoGroup
Bastia, France (7790): Température de l'air & dewpoint: 19.04.2018 10:00:00 - 25.04.2018 10:00:00 (CEST)Bastia, France (7790): Température de l'air 5cm: 19.04.2018 10:00:00 - 25.04.2018 10:00:00 (CEST)Bastia, France (7790): Température de l'air -20cm & Température de l'air -100cm: 19.04.2018 10:00:00 - 25.04.2018 10:00:00 (CEST)Bastia, France (7790): Vitesse du vent & gusts: 19.04.2018 10:00:00 - 25.04.2018 10:00:00 (CEST)Bastia, France (7790): Direction du vent: 19.04.2018 10:00:00 - 25.04.2018 10:00:00 (CEST)Bastia, France (7790): reduced air pressure: 19.04.2018 10:00:00 - 25.04.2018 10:00:00 (CEST)Bastia, France (7790): visibility: 19.04.2018 10:00:00 - 25.04.2018 10:00:00 (CEST)Bastia, France (7790): Ensoleillement: 19.04.2018 10:00:00 - 25.04.2018 10:00:00 (CEST)Bastia, France (7790): Quantités de précipitations: 19.04.2018 10:00:00 - 25.04.2018 10:00:00 (CEST)
Date & Time tt [°C] td [°C] tt 5cm [°C] tt -20cm [°C] tt -100cm [°C] ff [km/h] ff [knt] fx [km/h] fx [knt] dd ppp [hPa] vv [km] sd [min] rr [mm]
25.04.2018 10:00:00 20,4 15,6 19,8 16,9 15,2 6 4 14 8 E 1018,4 19 60 0,0
25.04.2018 09:00:00 18,5 14,2 13,4 17,0 15,2 0 0 9 5 N 1018,2 19 60 0,0
25.04.2018 08:00:00 14,5 12,5 8,2 17,0 15,2 5 3 8 5 SW 1018,0 33 60 0,0
25.04.2018 07:00:00 12,2 11,1 7,1 17,1 15,2 6 3 9 5 SW 1017,7 20 13 0,0
25.04.2018 06:00:00 12,1 11,2 7,4 17,1 15,1 6 3 9 5 SW 1017,4 20 0 0,2
25.04.2018 05:00:00 12,0 10,9 7,5 17,3 15,2 6 3 9 5 SW 1017,5 19 0 0,0
25.04.2018 04:00:00 12,5 11,7 7,4 17,3 15,2 6 3 11 6 SW 1017,7 14 0 -
25.04.2018 03:00:00 12,7 12,1 7,4 17,3 15,1 6 3 8 4 SSW 1018,1 16 0 0,0
25.04.2018 02:00:00 13,8 12,7 9,0 17,3 15,1 3 2 17 9 SW 1018,1 13 0 0,0
25.04.2018 01:00:00 14,6 13,6 9,4 17,4 15,1 13 7 19 11 SSW 1018,1 13 0 -
25.04.2018 00:00:00 13,6 12,8 9,2 17,3 15,1 6 3 8 5 SSW 1018,3 7 0 0,0
24.04.2018 23:00:00 14,7 13,6 9,6 17,3 15,1 3 2 6 4 W 1018,7 11 0 0,0
24.04.2018 22:00:00 15,4 14,3 10,6 17,3 15,1 4 2 6 3 WSW 1018,5 7 0 0,0
24.04.2018 21:00:00 16,6 15,0 11,8 17,2 15,1 2 1 8 4 ESE 1018,3 12 0 0,0
24.04.2018 20:00:00 17,8 14,9 15,9 17,1 15,1 5 3 10 6 ESE 1018,0 8 21 0,0
24.04.2018 19:00:00 19,7 15,8 21,4 17,0 15,1 6 3 13 7 E 1018,0 19 60 0,0
24.04.2018 18:00:00 20,5 15,5 29,7 16,9 15,1 8 4 17 9 E 1018,2 20 60 0,0
24.04.2018 17:00:00 21,0 15,3 34,2 16,8 15,1 9 5 19 10 ENE 1018,5 20 60 0,0
24.04.2018 16:00:00 21,2 17,0 34,3 16,7 15,1 10 5 22 12 ENE 1019,0 19 57 0,0
24.04.2018 15:00:00 21,4 17,0 33,6 16,7 15,1 9 5 21 12 NE 1019,2 19 58 0,0
24.04.2018 14:00:00 20,9 16,5 33,5 16,6 15,1 12 7 29 15 NE 1019,4 19 54 0,0
24.04.2018 13:00:00 21,2 16,2 32,6 16,7 15,1 11 6 24 13 ENE 1019,6 20 53 0,0
24.04.2018 12:00:00 21,5 14,6 32,3 16,7 15,1 10 5 16 9 ENE 1019,6 20 60 0,0
24.04.2018 11:00:00 21,4 12,3 23,3 16,8 15,1 7 4 15 8 E 1019,5 20 60 0,0
24.04.2018 10:00:00 21,6 12,4 17,8 16,8 15,1 4 2 10 6 ENE 1019,2 20 60 0,0
24.04.2018 09:00:00 19,0 12,3 13,8 16,9 15,1 0 0 9 5 N 1018,9 28 60 0,0
24.04.2018 08:00:00 14,7 11,7 10,5 17,0 15,0 7 4 11 6 SW 1018,6 20 43 0,0
24.04.2018 07:00:00 - - 10,3 17,0 15,0 6 4 10 6 WSW - 37 0 0,0
24.04.2018 06:00:00 12,7 10,2 10,9 17,1 15,0 8 5 11 6 SSW 1018,0 38 0 -
24.04.2018 05:00:00 13,0 10,4 10,8 17,1 15,0 7 4 10 5 SW 1018,1 38 0 -
24.04.2018 04:00:00 13,1 10,8 10,9 17,2 15,0 6 4 12 6 SSW 1018,2 33 0 0,0
24.04.2018 03:00:00 13,3 10,7 10,4 17,2 15,0 5 3 10 5 SW 1017,8 32 0 0,0
24.04.2018 02:00:00 13,6 10,4 10,8 17,2 15,0 3 2 10 5 WSW 1018,1 41 0 0,0
24.04.2018 01:00:00 13,6 11,1 10,8 17,3 15,0 5 3 9 5 SW 1018,8 36 0 -
24.04.2018 00:00:00 14,4 12,1 11,3 17,3 15,0 5 3 11 6 WSW 1018,9 37 0 0,0
23.04.2018 23:00:00 14,8 12,8 11,3 17,2 15,0 5 3 8 4 W 1019,0 32 0 0,0
23.04.2018 22:00:00 15,4 14,3 11,5 17,2 15,0 3 2 7 4 SSW 1018,9 9 0 0,0
23.04.2018 21:00:00 17,0 15,7 12,3 17,1 15,0 2 1 9 5 S 1018,4 13 0 0,0
23.04.2018 20:00:00 18,3 15,4 16,1 17,0 15,0 4 2 9 5 ESE 1018,2 9 35 0,0
23.04.2018 19:00:00 20,3 14,4 19,3 16,9 15,0 6 3 11 6 ESE 1018,3 36 44 0,0
23.04.2018 18:00:00 21,3 15,2 21,0 16,7 15,0 9 5 16 9 E 1018,3 22 60 0,0
23.04.2018 17:00:00 22,0 14,9 23,4 16,6 15,0 11 6 19 10 E 1018,3 59 60 0,0
23.04.2018 16:00:00 22,1 13,7 24,9 16,5 15,0 14 7 22 12 E 1018,8 42 60 0,0
23.04.2018 15:00:00 22,6 12,8 27,8 16,5 14,9 13 7 23 12 SE 1019,1 26 60 0,0
23.04.2018 14:00:00 22,4 15,3 28,2 16,5 15,0 14 8 23 12 SE 1019,4 20 60 0,0
23.04.2018 13:00:00 22,5 15,1 30,2 16,5 14,9 12 6 21 11 SE 1019,6 20 60 0,0
23.04.2018 12:00:00 22,1 15,9 26,6 16,5 14,9 12 6 19 10 ESE 1019,9 55 60 0,0
23.04.2018 11:00:00 21,1 14,3 22,9 16,6 14,9 9 5 16 9 ESE 1020,0 60 55 0,0
23.04.2018 10:00:00 20,2 15,6 17,1 16,7 14,9 10 5 19 10 ESE 1019,7 19 60 0,0
23.04.2018 09:00:00 18,6 10,9 13,2 16,8 14,9 10 5 18 10 SSW 1019,5 47 60 0,0
23.04.2018 08:00:00 15,8 10,8 7,9 16,8 14,9 9 5 18 10 SW 1019,3 54 60 0,2
23.04.2018 07:00:00 12,1 9,8 7,4 16,9 14,9 6 3 10 5 WSW 1019,1 40 10 0,0
23.04.2018 06:00:00 12,0 10,4 7,9 17,0 14,9 5 3 9 5 SW 1018,9 29 0 -
23.04.2018 05:00:00 12,4 11,0 8,1 17,1 14,9 5 3 9 5 WSW 1019,0 29 0 -
23.04.2018 04:00:00 11,9 11,0 8,6 17,1 14,8 5 3 9 5 W 1019,0 20 0 -
23.04.2018 03:00:00 12,2 10,9 8,9 17,2 14,8 2 1 7 4 NW 1019,0 15 - 0,0
23.04.2018 02:00:00 12,7 11,4 9,1 17,2 14,9 3 2 7 4 SW 1019,2 19 0 0,0
23.04.2018 01:00:00 14,3 13,2 9,5 17,2 14,8 5 3 8 5 WSW 1019,3 18 0 0,0
23.04.2018 00:00:00 13,4 12,5 10,3 17,2 14,8 4 2 8 4 SW 1019,3 8 0 0,0
22.04.2018 23:00:00 14,5 13,5 10,5 17,2 14,8 5 3 6 4 WSW 1019,2 12 0 0,0
22.04.2018 22:00:00 15,3 14,2 11,2 17,1 14,8 3 2 7 4 S 1019,0 3,0 0 -
22.04.2018 21:00:00 16,4 14,9 12,3 17,0 14,8 3 2 8 5 SSE 1018,5 6 0 0,0
22.04.2018 20:00:00 18,1 15,7 15,7 16,9 14,8 4 2 13 7 ESE 1017,9 9 28 0,0
22.04.2018 19:00:00 19,5 16,5 19,1 16,8 14,8 10 5 18 10 SE 1017,7 20 60 0,0
22.04.2018 18:00:00 20,5 17,1 21,4 16,6 14,8 10 5 16 9 ESE 1017,6 20 60 0,0
22.04.2018 17:00:00 20,9 16,7 23,5 16,5 14,7 10 5 19 10 ENE 1017,8 20 60 0,0
22.04.2018 16:00:00 21,5 15,6 25,5 16,5 14,8 10 5 19 10 E 1018,2 44 60 0,0
22.04.2018 15:00:00 21,8 15,2 28,5 16,4 14,7 11 6 18 10 E 1018,6 20 60 0,0
22.04.2018 14:00:00 22,6 13,4 29,2 16,4 14,7 9 5 16 9 E 1018,7 19 60 0,0
22.04.2018 13:00:00 22,7 13,7 31,7 16,4 14,8 9 5 20 11 SE 1018,9 20 60 0,0
22.04.2018 12:00:00 21,8 13,4 27,3 16,5 14,7 14 8 20 11 E 1019,0 52 60 0,0
22.04.2018 11:00:00 22,6 13,1 23,0 16,5 14,7 9 5 14 8 ESE 1018,8 58 60 0,0
22.04.2018 10:00:00 21,9 10,7 16,9 16,6 14,7 4 2 15 8 S 1018,6 46 60 0,0
22.04.2018 09:00:00 18,9 9,9 12,9 16,7 14,7 10 5 26 14 SSW 1018,1 60 60 0,0
22.04.2018 08:00:00 15,6 10,1 9,1 16,8 14,7 6 3 10 5 SSW 1018,1 46 60 0,0
22.04.2018 07:00:00 12,4 8,3 8,7 16,8 14,7 6 4 11 6 SW 1018,1 60 9 0,0
22.04.2018 06:00:00 14,5 8,0 9,5 16,9 14,7 6 3 16 8 W 1017,8 60 0 0,0
22.04.2018 05:00:00 15,6 7,6 11,0 16,9 14,7 11 6 26 14 SW 1017,6 60 0 -
22.04.2018 04:00:00 15,4 8,4 9,3 17,0 14,7 13 7 19 10 SW 1017,8 60 0 -
22.04.2018 03:00:00 13,8 8,8 8,9 17,1 14,7 9 5 13 7 SW 1018,2 58 0 0,0
22.04.2018 02:00:00 14,1 9,7 8,7 17,1 14,7 8 4 13 7 SW 1018,6 59 0 -
22.04.2018 01:00:00 13,9 9,9 9,7 17,1 14,7 5 3 9 5 S 1018,8 47 0 0,0
22.04.2018 00:00:00 14,1 11,3 10,2 17,1 14,7 5 3 10 5 SW 1018,9 20 0 0,0
21.04.2018 23:00:00 15,2 11,6 10,3 17,0 14,6 8 4 14 8 NNW 1018,7 20 0 0,0
21.04.2018 22:00:00 16,2 10,3 11,3 17,0 14,7 10 5 12 6 WSW 1018,4 20 0 0,0
21.04.2018 21:00:00 16,8 13,1 11,6 16,9 14,6 6 4 8 5 SW 1018,0 33 0 0,0
21.04.2018 20:00:00 19,7 14,3 14,7 16,8 14,6 2 1 11 6 SE 1017,6 13 28 0,0
21.04.2018 19:00:00 21,3 15,2 19,3 16,6 14,6 7 4 14 8 SE 1017,4 60 60 0,0
21.04.2018 18:00:00 24,2 15,7 22,3 16,5 14,6 7 4 17 9 E 1017,6 56 60 0,0
21.04.2018 17:00:00 25,1 11,6 24,5 16,4 14,6 7 4 22 12 ENE 1017,9 60 60 0,0
21.04.2018 16:00:00 24,5 15,1 27,0 16,3 14,6 10 5 19 10 ENE 1018,4 59 60 0,0
21.04.2018 15:00:00 25,0 13,9 29,3 16,2 14,6 9 5 20 11 N 1018,7 60 60 0,0
21.04.2018 14:00:00 24,8 14,9 30,2 16,2 14,6 11 6 24 13 NE 1019,0 60 60 0,0
21.04.2018 13:00:00 24,9 11,5 33,1 16,2 14,6 8 4 19 10 N 1019,3 60 60 0,0
21.04.2018 12:00:00 23,8 11,8 27,4 16,2 14,6 7 4 19 10 NNE 1019,8 60 60 0,0
21.04.2018 11:00:00 23,3 10,4 23,6 16,3 14,6 11 6 26 14 N 1020,0 58 60 0,0
21.04.2018 10:00:00 22,6 13,1 18,3 16,3 14,6 8 4 23 12 N 1019,9 60 60 0,0
21.04.2018 09:00:00 19,7 11,5 13,6 16,4 14,6 7 4 12 7 SSW 1019,7 56 60 0,0
21.04.2018 08:00:00 16,9 10,5 10,7 16,4 14,5 8 5 16 9 SSW 1019,5 60 60 0,0
21.04.2018 07:00:00 14,3 8,7 10,7 16,5 14,6 10 5 19 11 SW 1019,3 57 7 0,0
21.04.2018 06:00:00 16,3 8,5 10,8 16,5 14,5 13 7 22 12 SW 1018,8 60 0 -
21.04.2018 05:00:00 15,7 8,9 10,7 16,6 14,5 11 6 17 9 SW 1019,1 60 0 0,0
21.04.2018 04:00:00 15,0 8,9 11,0 16,6 14,5 9 5 14 7 SW 1019,4 60 - 0,0
21.04.2018 03:00:00 15,7 8,9 11,4 16,7 14,5 9 5 16 9 SW 1019,5 60 0 0,0
21.04.2018 02:00:00 16,2 9,1 11,4 16,8 14,5 9 5 14 7 SW 1019,7 60 0 0,0
21.04.2018 01:00:00 16,3 9,2 11,6 16,7 14,5 10 5 13 7 SW 1019,9 60 0 0,0
21.04.2018 00:00:00 16,9 9,3 11,5 16,7 14,5 10 5 16 9 SW 1019,9 20 0 0,0
20.04.2018 23:00:00 15,9 9,8 11,4 16,7 14,5 10 5 14 8 SW 1020,1 20 0 0,0
20.04.2018 22:00:00 15,9 10,2 11,5 16,6 14,5 7 4 12 6 SW 1020,3 42 0 0,0
20.04.2018 21:00:00 16,9 12,0 12,4 16,5 14,5 7 4 11 6 SSW 1020,1 35 0 0,0
20.04.2018 20:00:00 20,3 11,0 15,2 16,4 14,5 8 5 11 6 NE 1019,5 56 18 0,0
20.04.2018 19:00:00 23,7 10,7 19,5 16,3 14,5 5 3 26 14 N 1019,5 59 60 0,0
20.04.2018 18:00:00 24,2 10,8 21,6 16,2 14,5 8 4 15 8 N 1019,9 60 60 0,0
20.04.2018 17:00:00 24,1 12,4 24,5 16,0 14,5 11 6 16 8 N 1020,5 20 60 0,0
20.04.2018 16:00:00 24,1 12,1 25,6 16,0 14,4 11 6 30 16 N 1021,0 19 60 0,0
20.04.2018 15:00:00 24,0 11,0 27,6 15,9 14,4 11 6 21 11 N 1021,8 20 60 0,0
20.04.2018 14:00:00 23,4 11,8 29,0 15,9 14,4 13 7 19 11 N 1022,3 19 60 0,0
20.04.2018 13:00:00 22,9 12,8 31,1 15,9 14,4 13 7 24 13 N 1022,9 17 60 0,0
20.04.2018 12:00:00 22,4 12,3 26,4 15,9 14,4 15 8 23 12 N 1023,1 15 60 0,0
20.04.2018 11:00:00 21,9 11,6 22,2 16,0 14,4 15 8 23 12 N 1023,3 12 60 0,0
20.04.2018 10:00:00 21,3 13,0 18,4 16,0 14,4 13 7 18 10 N 1022,9 8 60 0,0
20.04.2018 09:00:00 19,0 13,6 13,5 16,1 14,4 4 2 9 5 SSW 1022,9 20 60 0,0
20.04.2018 08:00:00 15,3 11,7 10,6 16,1 14,4 8 5 11 6 SW 1022,7 40 60 0,0
20.04.2018 07:00:00 12,8 10,0 9,7 16,2 14,4 8 5 12 7 SW 1022,9 36 6 0,0
20.04.2018 06:00:00 12,6 9,8 9,8 16,3 14,4 8 4 12 6 SW 1022,8 39 0 -
20.04.2018 05:00:00 - - 9,6 16,3 14,4 9 5 11 6 SW - 41 0 -
20.04.2018 04:00:00 13,0 9,8 9,0 16,3 14,3 8 4 11 6 SSW 1023,1 42 0 0,0
20.04.2018 03:00:00 - - 9,9 16,4 14,4 5 3 11 6 WSW - 51 0 0,0
20.04.2018 02:00:00 13,8 9,8 9,7 16,4 14,3 8 5 10 5 SW 1023,5 50 0 0,0
20.04.2018 01:00:00 13,3 10,1 10,3 16,4 14,3 7 4 9 5 SW 1023,9 52 0 0,0
20.04.2018 00:00:00 14,4 10,4 10,8 16,4 14,3 6 3 13 7 WSW 1024,1 42 0 -
19.04.2018 23:00:00 14,6 10,2 11,3 16,4 14,4 6 4 21 12 W 1024,4 20 0 0,0
19.04.2018 22:00:00 15,3 10,9 12,0 16,3 14,3 9 5 11 6 SW 1024,3 20 0 0,0
19.04.2018 21:00:00 16,4 11,5 12,8 16,2 14,3 8 4 12 6 SW 1024,1 34 0 0,0
19.04.2018 20:00:00 17,8 11,6 14,7 16,1 14,3 9 5 16 9 NNW 1024,0 50 28 0,0
19.04.2018 19:00:00 20,9 12,3 18,4 15,9 14,3 9 5 18 10 NE 1023,8 54 60 0,0
19.04.2018 18:00:00 23,1 10,8 20,7 15,8 14,3 4 2 13 7 E 1024,1 19 60 0,0
19.04.2018 17:00:00 22,6 11,6 23,4 15,7 14,3 7 4 14 8 NNE 1024,3 53 60 0,0
19.04.2018 16:00:00 22,4 11,8 25,2 15,6 14,3 6 4 20 11 NNE 1024,7 19 60 0,0
19.04.2018 15:00:00 21,8 12,4 27,5 15,5 14,3 9 5 20 11 NE 1025,6 48 60 0,0
19.04.2018 14:00:00 21,6 12,2 28,2 15,6 14,3 10 6 30 16 NE 1025,9 49 60 0,0
19.04.2018 13:00:00 21,5 11,5 31,8 15,6 14,3 9 5 19 10 NNE 1026,1 48 60 0,0
19.04.2018 12:00:00 21,6 11,9 27,2 15,6 14,3 7 4 18 10 NE 1026,3 19 60 0,0
19.04.2018 11:00:00 20,8 12,7 21,8 15,6 14,3 7 4 16 9 N 1026,3 20 60 0,0
19.04.2018 10:00:00 19,4 12,2 17,8 15,7 14,3 11 6 18 10 N 1026,4 20 60 0,0

tt = Température de l'air
td = dewpoint
tt 5cm = Température de l'air 5cm
tt -20cm = Température de l'air -20cm
tt -100cm = Température de l'air -100cm
ff = Vitesse du vent
fx = gusts
dd = Direction du vent
ppp = reduced air pressure
vv = visibility
sd = Ensoleillement
rr = Quantités de précipitations

stations d'obs. à proximité